Regional Weather Roundup
Issued by NWS Upton, NY

Current Version | Previous Version | Text Only | Print | Product List | Glossary Off
Versions: 1 2 3 4 5 6 7 8 9 10 11 12 13 14 15 16 17 18 19 20 21 22 23 24 25 26 27 28 29 30 31 32 33 34 35 36 37 38 39 40 41 42 43 44 45 46 47 48 49 50
000 ASUS41 KOKX 041204 RWROKX REGIONAL WEATHER ROUNDUP NATIONAL WEATHER SERVICE NEW YORK NY 800 AM EDT TUE AUG 04 2015 NOTE: "FAIR" INDICATES FEW OR NO CLOUDS BELOW 12,000 FEET WITH NO SIGNIFICANT WEATHER AND/OR OBSTRUCTIONS TO VISIBILITY. NYZ071-072-176-178-NJZ106-104-041300- NEW YORK CITY METRO AREA CITY SKY/WX TMP DP RH WIND PRES REMARKS CENTRAL PARK CLOUDY 70 65 84 W6 29.89S LAGUARDIA APRT CLOUDY 74 63 68 SW9 29.86S KENNEDY INTL CLOUDY 74 66 76 SW8 29.88R NEWARK/LIBERTY CLOUDY 71 67 87 SW8 29.87S BRNX BOT. GARD N/A 72 63 73 W3 29.86S TETERBORO CLOUDY 71 65 81 SW5 29.85S $$ NYZ177-179-078>081-041300- LONG ISLAND NEW YORK CITY SKY/WX TMP DP RH WIND PRES REMARKS FARMINGDALE CLOUDY 74 66 76 SW8 29.87S ISLIP CLOUDY 73 66 78 W6 29.85S SHIRLEY PTSUNNY 74 66 76 SW3 29.86F WESTHAMPTON PTSUNNY 76 67 73 SW8 29.87S MONTAUK POINT N/A 73 67 81 SW3 29.87R $$ NYZ052-065-067-041300- HUDSON VALLEY CITY SKY/WX TMP DP RH WIND PRES REMARKS WHITE PLAINS CLOUDY 71 66 84 W3 29.86R NEWBURGH PTSUNNY 68 66 94 SW5 29.87S MONTGOMERY CLOUDY 69 66 90 SW5 29.86S POUGHKEEPSIE CLOUDY 70 66 87 S3 29.85R ALBANY MOSUNNY 69 65 86 SE3 29.83F $$ NJZ001-105-106-008-010-013-015-019>022-104-041300- NEW JERSEY CITY SKY/WX TMP DP RH WIND PRES REMARKS NEWARK/LIBERTY CLOUDY 71 67 87 SW8 29.87S TETERBORO CLOUDY 71 65 81 SW5 29.85S CALDWELL CLOUDY 69 64 84 SW3 29.87S MORRISTOWN MOSUNNY 70 66 88 CALM 29.87F SOMERVILLE CLOUDY 68 65 90 CALM 29.87R SUSSEX CLOUDY 68 65 90 S3 29.87S ANDOVER N/A 67 65 93 SW3 29.89S TRENTON CLOUDY 69 66 90 CALM 29.86F MILLVILLE CLOUDY 78 73 84 VRB5 29.89F ATLANTIC CITY PTSUNNY 79 75 87 S7 29.89F WRIGHTSTOWN CLOUDY 71 71 99 NE2 29.83F TOMS RIVER N/A 75 72 88 CALM 29.85F BELMAR CLOUDY 72 63 73 SW3 29.87F $$ PAZ047>061-062-071-041300- EASTERN PENNSYLVANIA CITY SKY/WX TMP DP RH WIND PRES REMARKS PHILADELPHIA CLOUDY 77 69 76 SW8 29.87S ALLENTOWN MOSUNNY 68 66 93 CALM 29.88F SCRANTON SUNNY 71 64 78 SW7 29.88F $$ CTZ002-004>006-009-010-012-RIZ004-006-007-MAZ004-011-015-041300- SOUTHERN NEW ENGLAND IN CT CITY SKY/WX TMP DP RH WIND PRES REMARKS BRADLEY INTL PTSUNNY 75 67 76 SW6 29.83R HARTFORD MOSUNNY 74 67 78 S5 29.84R DANBURY CLOUDY 71 71 100 SW6 29.87S WTRBRY/OXFORD MOSUNNY 72 63 73 SW3 29.88R BRIDGEPORT PTSUNNY 74 66 76 SW9 29.85S MERIDEN MOSUNNY 75 68 78 VRB5 29.84S NEW HAVEN PTSUNNY 74 68 81 SW8 29.85R CHESTER FAIR 72 70 94 SW6 29.87R GROTON MOSUNNY 74 69 85 W9 29.85R WILLIMANTIC MOSUNNY 72 69 90 SE6 29.85R IN RI CITY SKY/WX TMP DP RH WIND PRES REMARKS PROVIDENCE CLOUDY 68 67 96 CALM 29.86F BLOCK ISLAND N/A 70 66 88 SW8 29.88R WESTERLY PTSUNNY 73 69 87 CALM 29.87R IN MA CITY SKY/WX TMP DP RH WIND PRES REMARKS BOSTON CLOUDY 68 66 93 S12 29.85R WORCESTER CLOUDY 69 66 90 SW7 29.87R WESTFIELD PTSUNNY 74 64 71 N5 29.83R PROVINCETOWN CLOUDY 72 63 73 W24G52 29.95R THUNDER NANTUCKET MOSUNNY 74 72 93 SW12 29.91R FOG $$ ANZ330-335-338-340-345-350-353-355-041300- COASTAL MARINE OBSERVATIONS STATION/POSITION TIME SKY/WX TEMP WIND PRES VSBY WAVE AIR SEA DIR/SP/G HT/PER (UTC) (F) (DEG/KT/KT) (MB) (MI) (FT/S) NY HARB ENTRANCE 1150 75 74 240/ 8/ 10 1011.2 5/ 7 4S FIRE IS NOT AVBL 20S FIRE ISLAND 1050 76 74 210/ 8/ 10 1011.4 7/ 7 GREAT SOUTH BAY NOT AVBL 23SW MTP 1150 75 74 220/ 12/ 16 1010.7 7/ 8 HUDSON CANYON NOT AVBL KINGS POINT 1100 71 71 210/ 9/ 11 1010.4 EXECUTION ROCKS 1100 71 190/ 6/ 8 N/A CENTRAL LI SOUND NOT AVBL EASTERN LI SOUND 1100 71 68 240/ 12/ 16 N/A ROBBINS REEF 1100 71 250/ 6/ 7 1010.4 $$ >>>>>>>>>>>>>>>>>>>>>>>>>>>> KEY <<<<<<<<<<<<<<<<<<<<<<<<<<< > < > SKY/WX - SKY CONDITION/PRESENT WEATHER < > TMP - TEMPERATURE IN FAHRENHEIT < > DP - DEWPOINT IN FAHRENHEIT < > RH - RELATIVE HUMIDITY IN PERCENT < > WIND - DIRECTION AND SPEED IN MPH < > PRES - MEAN SEA LEVEL PRESSURE IN INCHES OF HG < > WCI - WIND CHILL INDEX < > VSB - VISIBILITY IN MILES < > HX - HEAT INDEX < > TC - TEMPERATURE IN CELSIUS < > VRB - VARIABLE WIND DIRECTION < > < >>>>>>>>>>>>>>>>>>>>>>>>>>>> KEY <<<<<<<<<<<<<<<<<<<<<<<<<<<

USA.gov is the U.S. government's official web portal to all federal, state and local government web resources and services.